Location: *
(60.1759°S, 155.0663°W)
Time: 16:56:12
(UTC+00:00)

PSLV R/B - Pass Details

Date: 17 September 2019
Orbit: 595 x 629 km, 97.9° (Epoch: 15 October)

Event Time Altitude Azimuth Distance (km) Brightness Sun altitude
Exits shadow 13:30:19 43° 250° (WSW) 867 4.0 -21.1°
Drops below altitude 10° 13:33:48 10° 205° (SSW) 1,982 6.3 -20.8°
Sets 13:36:03 0° 198° (SSW) 2,890 7.2 -20.6°
